Miscellaneous Local Product
Issued by NWS North Platte, NE

Home | Current Version | Previous Version | Text Only | Print | Product List | Glossary On
Versions: 1 2 3 4 5 6 7 8 9 10 11 12 13 14 15 16 17 18 19 20 21 22 23 24 25 26 27 28 29 30 31 32 33 34 35 36 37 38 39 40 41 42 43 44 45 46 47 48 49 50
000
AXUS43 KLBF 221610
MISLBF


WESTERN AND NORTH CENTRAL NEBRASKA HOURLY WEATHER ROUNDUP
NATIONAL WEATHER SERVICE NORTH PLATTE NE
1100 AM CDT TUE APR 22 2014

***STATIONS NOT REPORTING VARIABLES SUCH AS SKY/WEATHER OR
PRESSURE ARE PROVIDED BY THE NEBRASKA DEPARTMENT OF
ROADS...RAWS...AND APRS NETWORKS...AND ARE NOT UNDER
NATIONAL WEATHER SERVICE QUALITY CONTROL***

...OBSERVATIONS IN AND NEAR THE EASTERN PANHANDLE OF NEBRASKA...

CITY           SKY/WX    TMP DP  RH WIND       PRES   REMARKS
PINE RIDGE     PTSUNNY   65  37  35 S28G39    29.86F
CHADRON        CLOUDY    64  41  42 SW12G20   29.85F
ALLIANCE       PTSUNNY   62  37  39 S23G35    29.91F
SIDNEY         PTSUNNY   63  37  38 S28G35    29.96F
WHITECLAY        N/A     64  38  38 S25         N/A
CRESCENT LAKE    N/A     61  35  37 S20G29      N/A
LISCO            N/A     66  33  28 SE21        N/A
BIG SPRINGS      N/A     59  35  40 S26         N/A
LEWELLEN         N/A     66  33  28 S17         N/A
$$

...OBSERVATIONS IN SOUTHWEST NEBRASKA AND FAR NORTHEAST COLORADO...

CITY           SKY/WX    TMP DP  RH WIND       PRES   REMARKS
WRAY           FAIR      66  32  28 S24G32    30.02F
HOLYOKE        FAIR      64  32  29 S29G35    30.00F
IMPERIAL       SUNNY     65  27  23 S26G35    30.01F
OGALLALA       MOSUNNY   62  28  27 S20G33    29.98F
NORTH PLATTE   SUNNY     62  28  27 S18G26    30.04F
MCCOOK         PTSUNNY   64  30  27 S23G31    30.07F
LEXINGTON      SUNNY     62  29  29 S22G30    30.08F
PAXTON           N/A     58  31  36 S24         N/A
SUTHERLAND       N/A     59  28  31 S21         N/A
GOTHENBURG       N/A     60  32  35 SW7G17      N/A
CALLAWAY         N/A     56  32  40 S24         N/A
$$

...OBSERVATIONS IN NORTH CENTRAL NEBRASKA...

CITY           SKY/WX    TMP DP  RH WIND       PRES   REMARKS
VALENTINE      SUNNY     63  24  22 S25G35    29.97F
THEDFORD       SUNNY     63  24  22 S22G35    30.02F
AINSWORTH      SUNNY     63  29  28 S24G30    30.02F
O`NEILL        PTSUNNY   57  28  33 S15       30.10F
ORD            SUNNY     57  32  38 SE14G22   30.10F
BROKEN BOW     SUNNY     59  33  37 S17G26    30.07F
BROWNLEE         N/A     64  29  27 S26         N/A
SPRINGVIEW       N/A     60  33  36 S14G26      N/A
DUNNING          N/A     63  25  23 S16         N/A
BREWSTER         N/A     63  29  27 S21         N/A
ROSE             N/A     62  36  38 E21         N/A
NEWPORT          N/A     58  35  40 S16         N/A
COMSTOCK         N/A     64  38  38 S14         N/A
CHAMBERS         N/A     62  37  40 S8G16       N/A
EWING            N/A     58  31  36 S8G15       N/A
$$

...SOME WEATHER OBSERVATIONS FROM AROUND THE REGION...

CITY           SKY/WX    TMP DP  RH WIND       PRES   REMARKS
DENVER         PTSUNNY   68  35  29 SW15      29.97F
LARAMIE        CLOUDY    56  30  37 S9        30.01F
CHEYENNE       CLOUDY    57  36  45 S8        29.98F
SCOTTSBLUFF    CLOUDY    60  41  49 S10       29.91F
RAPID CITY     MOSUNNY   60  35  39 S14       29.82F
PIERRE         PTSUNNY   59  34  39 SE20G29   29.96F
WINNER         FAIR      62  29  28 SE20G30   30.01F
SIOUX FALLS    MOSUNNY   55  32  41 SE8       30.14F
OMAHA          MOSUNNY   58  31  35 E12       30.17S
GRAND ISLAND   SUNNY     59  33  37 SE9       30.14S
KANSAS CITY    MOSUNNY   58  30  34 NE10      30.15S
WICHITA        SUNNY     66  34  30 E8        30.15S
HAYS           SUNNY     64  34  32 SE17      30.14S
LIBERAL        SUNNY     66  30  26 S17G24    30.16F
GOODLAND       SUNNY     64  27  24 S32G41    30.04F
$$



USA.gov is the U.S. government's official web portal to all federal, state and local government web resources and services.